[[{"header":{"parameterUnit":"m.s-1","parameterCategory":1,"la1":30.2991,"la2":30.254,"lo1":-89.0895,"lo2":-89.0444,"dy":0.0017,"dx":0.0017,"nx":28,"ny":28,"refTime":"2023-09-07T09:00:00:Z","depth":0,"parameterNumber":2,"parameterNumberName":"U-component_of_WINDS"},"data":[0,0,0,0,0,0,0,0,0,0,0,0,0,0,0,0,0,0,0,0,0,0,0,0,0,0,0,0,0,0,0,0,0,0,0,0,0,0,0,0,0,0,0,0,0,0,0,0,0,0,0,0,0,0,0,0,0,0,2.6372,2.6373,0,2.6524,2.6526,2.6527,2.6542,2.6541,2.6539,2.6538,2.6691,2.6697,2.6702,0,0,0,0,0,0,0,0,0,0,0,0,0,2.6092,2.6097,2.6371,2.6373,2.6375,2.6524,2.6526,2.6528,2.6543,2.6541,2.6539,2.6537,2.669,2.6696,2.6703,0,0,0,0,0,0,0,0,0,0,0,0,0,2.6226,2.6099,2.6371,2.6401,2.6405,2.6523,2.6526,2.6528,2.6543,2.6541,2.6538,2.6536,2.6687,2.6696,2.6704,2.6802,0,0,2.6729,2.6733,0,0,0,0,0,0,0,0,2.6218,2.6236,2.6394,2.6399,2.6404,2.6512,2.6483,2.662,2.6544,2.6491,2.6538,2.6535,2.6633,2.6646,2.668,2.6809,2.6816,2.673,2.6735,2.6739,2.6741,0,0,0,0,0,0,0,2.6209,2.6229,2.6432,2.6397,2.6402,2.6406,2.6422,2.6509,2.6573,2.6495,2.6496,2.6514,2.6635,2.6672,2.6683,2.6818,2.673,2.6737,2.6742,2.6745,2.7037,2.704,0,0,0,0,0,0,2.6194,2.6222,2.6427,2.6436,2.6303,2.6413,2.6431,2.6479,2.6572,2.6584,2.6516,2.6515,2.6659,2.6674,2.6689,2.6811,2.6738,2.6746,2.6751,2.7035,2.7038,2.7041,0,0,0,0,0,0,2.6188,2.6212,2.6421,2.6329,2.6356,2.642,2.6474,2.6484,2.652,2.6588,2.66,2.6542,2.6657,2.6677,2.6774,2.6816,2.675,2.6758,2.7031,2.7036,2.7039,2.7055,0,0,0,0,0,0,2.618,2.621,2.6248,2.633,2.6361,2.6504,2.6477,2.6488,2.6534,2.6534,2.6615,2.6626,2.6657,2.6762,2.6783,2.6827,2.6764,2.7028,2.7033,2.7038,2.7051,2.7059,2.7066,0,0,0,0,0,2.617,2.6246,2.625,2.6275,2.641,2.6506,2.6524,2.6558,2.6538,2.6577,2.6621,2.6624,2.6808,2.6772,2.6795,2.6842,2.7025,2.7032,2.7038,2.7047,2.7057,2.7066,0,0,0,0,0,0,2.6166,2.6257,2.6263,2.6368,2.6429,2.6509,2.6559,2.6568,2.6635,2.6632,2.6671,2.6689,2.6785,2.6823,2.6781,2.6943,2.6915,2.6926,2.6914,2.6924,2.6932,2.692,2.6771,0,0,0,0,0,2.6178,2.6249,2.6324,2.6409,2.644,2.6494,2.6537,2.6559,2.6624,2.6649,2.6701,2.6763,2.6835,2.6882,2.6952,2.7057,2.7075,2.7101,2.7108,2.7114,2.7123,2.7182,2.7194,2.7061,2.7061,2.7061,0,0,2.6202,2.6261,2.6303,2.641,2.646,2.6533,2.6516,2.6593,2.6647,2.6661,2.6756,2.6796,2.6868,2.697,2.7017,2.7005,2.7164,2.7122,2.7126,2.7132,2.719,2.7202,2.7213,2.7065,2.7065,2.7064,0,0,2.6283,2.6335,2.6412,2.6463,2.654,2.6575,2.6594,2.6672,2.67,2.6796,2.6809,2.6873,2.6996,2.7048,2.709,2.7192,2.7197,2.7213,2.7253,2.7309,2.732,2.7329,2.7366,2.7378,2.7222,2.7222,2.7222,0,2.6303,2.6413,2.645,2.6527,2.6574,2.6591,2.667,2.6717,2.6812,2.6844,2.6829,2.6985,2.7035,2.7149,2.7174,2.7208,2.723,2.7204,2.7315,2.7325,2.7335,2.737,2.7383,2.7224,2.7224,2.7224,2.7223,0,2.6434,2.6511,2.6564,2.6657,2.671,2.6787,2.6834,2.6884,2.6901,2.6938,2.7036,2.7097,2.718,2.7208,2.7225,2.7325,2.7315,2.7308,2.728,2.7348,2.7382,2.7396,2.7226,2.7225,2.7225,2.7225,0,0,2.6516,2.663,2.6648,2.6691,2.6778,2.6837,2.6915,2.6998,2.7039,2.7104,2.7171,2.7275,2.7269,2.7317,2.734,2.739,2.7467,2.7376,2.7379,2.7391,2.7581,2.7586,2.7601,2.7471,2.7474,2.7476,2.7575,0,2.6607,2.6748,2.6783,2.6903,2.6974,2.6992,2.706,2.712,2.7157,2.7223,2.7263,2.7337,2.7323,2.7352,2.7403,2.7447,2.7506,2.744,2.7533,2.7536,2.7514,2.7619,2.7624,2.7714,2.7588,2.7591,2.7592,0,2.6732,2.6801,2.6928,2.7007,2.7038,2.7098,2.7177,2.7239,2.7308,2.7331,2.7386,2.7404,2.7486,2.7455,2.7568,2.7522,2.7563,2.759,2.7595,2.7604,2.7568,2.7631,2.7744,2.7757,2.7613,2.7612,2.761,0,2.6779,2.6904,2.6997,2.7033,2.7126,2.7169,2.7209,2.7276,2.7323,2.7392,2.7423,2.75,2.7542,2.7601,2.7639,2.7613,2.7749,2.7721,2.7771,2.777,2.7798,2.7796,2.7919,2.7824,2.7824,2.7824,2.7824,0,2.6877,2.6954,2.7019,2.7076,2.7163,2.7203,2.7287,2.7329,2.7388,2.7453,2.7473,2.7533,2.758,2.7647,2.7678,2.7767,2.7785,2.7806,2.7813,2.7804,2.7802,2.7831,2.7825,2.7828,2.7827,2.7826,2.7825,0,2.6944,2.6991,2.7093,2.7174,2.7196,2.7256,2.7325,2.7381,2.7419,2.75,2.7522,2.7581,2.7661,2.7705,2.7805,2.7826,2.7925,2.7929,2.7902,2.7905,2.7952,2.7947,2.8097,2.8119,2.801,2.8011,2.8012,0,2.7003,2.7063,2.7151,2.7196,2.7238,2.731,2.7359,2.7401,2.7451,2.7535,2.758,2.7661,2.7728,2.7854,2.7906,2.7982,2.7988,2.8036,2.8,2.7989,2.7989,2.7985,2.7991,2.8042,2.8043,2.8044,2.8044,0,2.7103,2.7124,2.7194,2.7273,2.7331,2.7395,2.7458,2.7494,2.7546,2.7601,2.7684,2.7736,2.7838,2.7918,2.7999,2.804,2.8051,2.8056,2.8071,2.8062,2.8044,2.8054,2.7919,2.8052,2.8051,2.805,2.805,2.805,2.7168,2.7222,2.7293,2.7371,2.7423,2.7482,2.7538,2.7584,2.7654,2.7741,2.7761,2.7848,2.7916,2.8025,2.8069,2.8137,2.8128,2.815,2.8156,2.8161,2.8162,2.8034,2.8152,2.8152,2.8151,2.8151,2.8151,0,2.7269,2.7316,2.7387,2.7476,2.7537,2.7543,2.7614,2.7664,2.774,2.7803,2.7869,2.7963,2.8041,2.81,2.8179,2.8222,2.8229,2.8242,2.8239,2.8248,2.8166,2.8144,2.8235,2.8235,2.8235,2.8235,2.8235,2.8235,2.7329,2.7421,2.745,2.7569,2.7615,2.7701,2.774,2.7795,2.7845,2.795,2.8015,2.8053,2.8114,2.8199,2.827,2.8285,2.8313,2.8325,2.8341,2.8263,2.8254,2.8245,2.8225,2.8331,2.8331,2.8418,2.8418,2.8419]},{"header":{"parameterUnit":"m.s-1","parameterCategory":1,"la1":30.2991,"la2":30.254,"lo1":-89.0895,"lo2":-89.0444,"dy":0.0017,"dx":0.0017,"nx":28,"ny":28,"refTime":"2023-09-07T09:00:00:Z","depth":0,"parameterNumber":3,"parameterNumberName":"V-component_of_WINDS"},"data":[0,0,0,0,0,0,0,0,0,0,0,0,0,0,0,0,0,0,0,0,0,0,0,0,0,0,0,0,0,0,0,0,0,0,0,0,0,0,0,0,0,0,0,0,0,0,0,0,0,0,0,0,0,0,0,0,0,0,2.524,2.5242,0,2.5449,2.5451,2.5454,2.5473,2.5471,2.5468,2.5466,2.5679,2.5686,2.5694,0,0,0,0,0,0,0,0,0,0,0,0,0,2.4854,2.486,2.5239,2.5242,2.5245,2.5448,2.5451,2.5454,2.5473,2.5471,2.5468,2.5465,2.5676,2.5685,2.5695,0,0,0,0,0,0,0,0,0,0,0,0,0,2.5038,2.4863,2.5239,2.5279,2.5284,2.5448,2.5451,2.5455,2.5474,2.547,2.5467,2.5464,2.5673,2.5685,2.5696,2.5833,0,0,2.5731,2.5736,0,0,0,0,0,0,0,0,2.5027,2.5052,2.527,2.5276,2.5283,2.5431,2.5393,2.5582,2.5475,2.5402,2.5466,2.5462,2.5599,2.5616,2.5663,2.5843,2.5852,2.5732,2.5739,2.5744,2.5748,0,0,0,0,0,0,0,2.5014,2.5043,2.5322,2.5273,2.5281,2.5285,2.5308,2.5429,2.5516,2.5408,2.541,2.5434,2.5602,2.5652,2.5668,2.5856,2.5732,2.5742,2.5749,2.5754,2.6159,2.6162,0,0,0,0,0,0,2.4994,2.5032,2.5316,2.5328,2.5144,2.5295,2.532,2.5387,2.5515,2.5531,2.5437,2.5435,2.5634,2.5655,2.5676,2.5846,2.5744,2.5755,2.5762,2.6155,2.6159,2.6164,0,0,0,0,0,0,2.4986,2.502,2.5307,2.5181,2.5218,2.5305,2.538,2.5393,2.5443,2.5537,2.5553,2.5472,2.5632,2.5659,2.5794,2.5853,2.576,2.5771,2.615,2.6156,2.6161,2.6186,0,0,0,0,0,0,2.4975,2.5017,2.5071,2.5182,2.5225,2.5423,2.5384,2.5399,2.5463,2.5462,2.5574,2.559,2.5631,2.5777,2.5806,2.5868,2.578,2.6145,2.6153,2.616,2.6181,2.6192,2.6202,0,0,0,0,0,2.4961,2.5069,2.5073,2.5107,2.5294,2.5427,2.5451,2.5497,2.5468,2.5522,2.5583,2.5586,2.5841,2.579,2.5823,2.5889,2.6142,2.6151,2.6159,2.6176,2.619,2.6202,0,0,0,0,0,0,2.4962,2.5084,2.509,2.5238,2.5322,2.543,2.55,2.551,2.5604,2.5599,2.5652,2.5677,2.581,2.5862,2.5803,2.6029,2.5989,2.6004,2.599,2.6004,2.6015,2.6,2.5789,0,0,0,0,0,2.4979,2.5077,2.5178,2.5298,2.534,2.5413,2.5472,2.55,2.5589,2.5625,2.5695,2.578,2.588,2.5944,2.6041,2.6187,2.6212,2.6249,2.6259,2.6267,2.6281,2.6362,2.638,2.6192,2.6192,2.6192,0,0,2.5016,2.5095,2.5154,2.53,2.5369,2.5469,2.5443,2.5549,2.5624,2.5641,2.5773,2.5827,2.5926,2.6067,2.6132,2.6115,2.6338,2.6278,2.6284,2.6294,2.6373,2.6391,2.6406,2.6198,2.6196,2.6196,0,0,2.5134,2.5204,2.5312,2.538,2.5484,2.5532,2.5557,2.5664,2.5701,2.5834,2.5848,2.5936,2.6107,2.6177,2.6234,2.6377,2.6384,2.6407,2.6464,2.6542,2.6557,2.657,2.6622,2.664,2.6419,2.6419,2.6419,0,2.5167,2.5319,2.5365,2.5473,2.5536,2.5556,2.5665,2.5729,2.5859,2.5902,2.588,2.6094,2.6162,2.632,2.6354,2.64,2.6431,2.6396,2.6551,2.6565,2.6578,2.6628,2.6647,2.6422,2.6421,2.6421,2.6421,0,2.5355,2.546,2.5534,2.566,2.5731,2.5839,2.59,2.5967,2.5988,2.6037,2.6172,2.6254,2.6367,2.6406,2.6428,2.6567,2.6553,2.654,2.6502,2.6598,2.6646,2.6665,2.6425,2.6424,2.6423,2.6423,0,0,2.5483,2.5631,2.5658,2.5715,2.583,2.5912,2.6018,2.613,2.6187,2.6274,2.6366,2.6509,2.6498,2.6563,2.6592,2.666,2.6769,2.664,2.6643,2.6662,2.6928,2.6938,2.696,2.6773,2.6777,2.678,2.692,0,2.5616,2.5809,2.5853,2.6019,2.6116,2.6134,2.6228,2.6308,2.6356,2.6444,2.6497,2.6598,2.6575,2.6614,2.6683,2.6741,2.6823,2.6731,2.6859,2.6863,2.6836,2.6985,2.6996,2.7125,2.6939,2.6942,2.6945,0,2.5798,2.589,2.6066,2.6168,2.621,2.6294,2.6399,2.6483,2.6574,2.6604,2.6676,2.6697,2.6808,2.6762,2.6916,2.6852,2.6906,2.6942,2.6948,2.6964,2.6911,2.7006,2.7167,2.7187,2.6974,2.6972,2.697,0,2.5875,2.6043,2.6171,2.6218,2.634,2.6398,2.6451,2.6538,2.6602,2.6693,2.6735,2.6837,2.6894,2.6972,2.702,2.6981,2.717,2.7127,2.7198,2.7197,2.724,2.7237,2.7414,2.7271,2.727,2.727,2.727,0,2.6021,2.6128,2.6207,2.6286,2.6406,2.6453,2.6571,2.6623,2.67,2.6789,2.6809,2.6891,2.6949,2.7039,2.7076,2.7198,2.7223,2.725,2.7259,2.725,2.7247,2.7288,2.7281,2.7275,2.7274,2.7273,2.7272,0,2.6129,2.6186,2.6326,2.6429,2.6457,2.6541,2.6629,2.6705,2.6752,2.6864,2.6892,2.6966,2.7073,2.7128,2.726,2.7286,2.7423,2.7426,2.7394,2.7398,2.7466,2.746,2.7678,2.7709,2.7543,2.7544,2.7546,0,2.6219,2.6302,2.6414,2.6475,2.6529,2.6627,2.6692,2.6741,2.6808,2.6916,2.6979,2.7087,2.7176,2.7345,2.741,2.7511,2.7518,2.7587,2.7533,2.7521,2.7521,2.7516,2.7525,2.7598,2.7599,2.76,2.7601,0,2.6374,2.6398,2.6492,2.6596,2.6673,2.6757,2.6839,2.6887,2.6949,2.7023,2.7133,2.7202,2.7337,2.7444,2.7549,2.7603,2.7613,2.7617,2.7639,2.7632,2.761,2.7624,2.7422,2.7613,2.7612,2.7611,2.761,2.761,2.6478,2.6552,2.6643,2.6746,2.6813,2.6889,2.6966,2.7022,2.7115,2.723,2.7252,2.7368,2.7454,2.7598,2.7654,2.7745,2.773,2.7762,2.777,2.7778,2.7782,2.7593,2.7764,2.7763,2.7763,2.7763,2.7763,0,2.6635,2.6693,2.6788,2.6903,2.6984,2.6985,2.7076,2.7144,2.7246,2.7326,2.7413,2.7538,2.7641,2.7714,2.7818,2.7877,2.7884,2.7902,2.79,2.7912,2.7788,2.7759,2.7895,2.7895,2.7895,2.7895,2.7895,2.7895,2.6727,2.6853,2.6887,2.7047,2.7104,2.7219,2.7271,2.7341,2.7405,2.7544,2.763,2.7676,2.7753,2.7863,2.7957,2.7975,2.8013,2.8032,2.8051,2.7935,2.7921,2.7908,2.7881,2.804,2.804,2.8168,2.8169,2.817]}]]